[[{"header":{"parameterUnit":"m.s-1","parameterCategory":1,"la1":30.2991,"la2":30.254,"lo1":-89.0895,"lo2":-89.0444,"dy":0.0017,"dx":0.0017,"nx":28,"ny":28,"refTime":"2024-04-18T03:00:00:Z","depth":0,"parameterNumber":2,"parameterNumberName":"U-component_of_WINDS"},"data":[0,0,0,0,0,0,0,0,0,0,0,0,0,0,0,0,0,0,0,0,0,0,0,0,0,0,0,0,0,0,0,0,0,0,0,0,0,0,0,0,0,0,0,0,0,0,0,0,0,0,0,0,0,0,0,0,0,0,0.3083,0.3085,0,0.3214,0.3215,0.3217,0.3266,0.3266,0.3265,0.3265,0.34,0.3404,0.3408,0,0,0,0,0,0,0,0,0,0,0,0,0,0.2877,0.288,0.3083,0.3085,0.3086,0.3214,0.3215,0.3217,0.3266,0.3266,0.3265,0.3265,0.3399,0.3404,0.3409,0,0,0,0,0,0,0,0,0,0,0,0,0,0.2983,0.2881,0.3083,0.3126,0.3131,0.3213,0.3216,0.3218,0.3266,0.3266,0.3265,0.3264,0.3398,0.3403,0.3409,0.3458,0,0,0.3428,0.343,0,0,0,0,0,0,0,0,0.2977,0.299,0.3118,0.3123,0.3129,0.3223,0.3192,0.3299,0.3266,0.3215,0.3265,0.3264,0.3342,0.3353,0.3378,0.3465,0.3471,0.3428,0.3432,0.3434,0.3436,0,0,0,0,0,0,0,0.2969,0.2985,0.3135,0.312,0.3127,0.3139,0.3154,0.3213,0.328,0.3219,0.3223,0.3238,0.3345,0.3373,0.3382,0.3473,0.3428,0.3433,0.3437,0.3439,0.3605,0.3606,0,0,0,0,0,0,0.2955,0.2979,0.3131,0.3139,0.305,0.3143,0.316,0.3194,0.328,0.3292,0.3238,0.324,0.3363,0.3375,0.3387,0.345,0.3434,0.344,0.3443,0.3604,0.3605,0.3606,0,0,0,0,0,0,0.295,0.2968,0.3126,0.306,0.3081,0.3148,0.3185,0.3196,0.3224,0.3294,0.3307,0.3254,0.3363,0.3379,0.344,0.3455,0.3443,0.3448,0.3603,0.3605,0.3606,0.3576,0,0,0,0,0,0,0.2944,0.2966,0.2985,0.306,0.3084,0.3176,0.3186,0.3199,0.3234,0.3237,0.3312,0.3324,0.3363,0.3431,0.3446,0.3463,0.3453,0.3602,0.3604,0.3605,0.3576,0.3576,0.3576,0,0,0,0,0,0.2936,0.2972,0.2986,0.3004,0.3109,0.3177,0.3191,0.3235,0.3235,0.3255,0.33,0.3322,0.3451,0.3437,0.3454,0.3474,0.3602,0.3604,0.3605,0.3576,0.3576,0.3576,0,0,0,0,0,0,0.2898,0.2983,0.2999,0.306,0.311,0.3185,0.3212,0.3234,0.3286,0.3287,0.334,0.3356,0.3413,0.345,0.3432,0.3525,0.3528,0.3533,0.3499,0.35,0.35,0.349,0.3458,0,0,0,0,0,0.2896,0.2943,0.3015,0.3062,0.3086,0.3144,0.3175,0.3205,0.326,0.3282,0.3331,0.3384,0.3437,0.3471,0.3523,0.3581,0.3598,0.3603,0.3603,0.3603,0.3607,0.364,0.3643,0.3612,0.3612,0.3612,0,0,0.2894,0.2946,0.2973,0.3055,0.3098,0.3146,0.3162,0.3213,0.3249,0.329,0.3351,0.3388,0.3451,0.3511,0.354,0.3543,0.3619,0.3605,0.3604,0.3609,0.3642,0.3645,0.3648,0.3614,0.3613,0.3613,0,0,0.2914,0.2958,0.3002,0.3044,0.3108,0.3147,0.3157,0.3228,0.3254,0.3316,0.3348,0.3391,0.3481,0.3524,0.3558,0.3593,0.3615,0.3608,0.3609,0.3641,0.3643,0.3646,0.3658,0.3662,0.3612,0.3612,0.3612,0,0.2903,0.2976,0.3021,0.307,0.3105,0.3143,0.3188,0.3227,0.3305,0.3329,0.3331,0.3444,0.3489,0.3559,0.3567,0.3593,0.3607,0.36,0.3639,0.3642,0.3645,0.3657,0.3662,0.3611,0.3611,0.3611,0.3611,0,0.2959,0.3009,0.3037,0.3111,0.3149,0.3195,0.3247,0.3281,0.3306,0.3344,0.3406,0.3461,0.3525,0.3544,0.357,0.3618,0.3618,0.3629,0.3633,0.3646,0.3658,0.3664,0.3609,0.361,0.361,0.361,0,0,0.296,0.3057,0.3066,0.31,0.3173,0.3213,0.3261,0.3322,0.335,0.3402,0.3444,0.3518,0.3528,0.3566,0.3598,0.3625,0.3649,0.3633,0.3635,0.3634,0.3705,0.3696,0.3701,0.3664,0.3665,0.3666,0.37,0,0.2989,0.3076,0.3117,0.3186,0.3232,0.3269,0.3311,0.336,0.3396,0.3442,0.3482,0.3534,0.3544,0.3567,0.3596,0.364,0.3664,0.3638,0.3703,0.3705,0.3686,0.3707,0.3699,0.3728,0.3705,0.3706,0.3706,0,0.3036,0.3087,0.316,0.3227,0.3248,0.3285,0.3344,0.3387,0.3444,0.3468,0.351,0.354,0.3591,0.359,0.3662,0.3644,0.3672,0.3698,0.37,0.3708,0.3706,0.3716,0.3739,0.3743,0.3714,0.3714,0.3713,0,0.3028,0.3116,0.3171,0.3198,0.3278,0.3303,0.3337,0.3393,0.3427,0.348,0.3502,0.356,0.3591,0.3635,0.3679,0.3675,0.3747,0.375,0.3769,0.3768,0.3783,0.3781,0.381,0.3801,0.3801,0.3801,0.3801,0,0.3057,0.31,0.3168,0.3202,0.3251,0.3298,0.3346,0.3383,0.3432,0.3474,0.3509,0.3548,0.3604,0.3649,0.3685,0.3738,0.3752,0.3774,0.3783,0.3771,0.3768,0.3791,0.379,0.3802,0.3802,0.3801,0.3801,0,0.3058,0.3105,0.3167,0.3237,0.3256,0.3289,0.3349,0.3383,0.342,0.3473,0.3488,0.3547,0.3602,0.365,0.3724,0.3747,0.3803,0.3813,0.3783,0.3788,0.3804,0.3802,0.3849,0.3857,0.3842,0.3842,0.3842,0,0.3073,0.3107,0.318,0.321,0.3244,0.3292,0.3327,0.3375,0.3409,0.3476,0.3502,0.3559,0.3608,0.3694,0.3744,0.38,0.3813,0.3825,0.3822,0.3808,0.3813,0.3811,0.3814,0.3825,0.3825,0.3825,0.3825,0,0.3095,0.3117,0.3165,0.3222,0.3262,0.3309,0.3357,0.338,0.3436,0.3473,0.353,0.3567,0.3642,0.3698,0.376,0.3796,0.382,0.3826,0.3833,0.3822,0.3802,0.3813,0.3783,0.3825,0.3825,0.3825,0.3825,0.3825,0.3104,0.3136,0.3192,0.3245,0.3285,0.3329,0.3364,0.3406,0.3454,0.3517,0.3543,0.36,0.3655,0.374,0.3776,0.3822,0.3826,0.3836,0.3839,0.3841,0.3839,0.3795,0.3833,0.3833,0.3833,0.3833,0.3833,0,0.3128,0.3166,0.3214,0.3279,0.3321,0.3339,0.3393,0.3426,0.3476,0.3526,0.3572,0.3637,0.3692,0.3745,0.3803,0.3829,0.3842,0.3843,0.3842,0.3849,0.3832,0.382,0.3832,0.3832,0.3832,0.3832,0.3832,0.3832,0.3145,0.32,0.3227,0.3302,0.334,0.3396,0.3425,0.3466,0.3505,0.3575,0.3621,0.3655,0.3706,0.3768,0.3819,0.3833,0.3853,0.3851,0.3868,0.3851,0.3851,0.385,0.3839,0.3855,0.3855,0.3882,0.3882,0.3882]},{"header":{"parameterUnit":"m.s-1","parameterCategory":1,"la1":30.2991,"la2":30.254,"lo1":-89.0895,"lo2":-89.0444,"dy":0.0017,"dx":0.0017,"nx":28,"ny":28,"refTime":"2024-04-18T03:00:00:Z","depth":0,"parameterNumber":3,"parameterNumberName":"V-component_of_WINDS"},"data":[0,0,0,0,0,0,0,0,0,0,0,0,0,0,0,0,0,0,0,0,0,0,0,0,0,0,0,0,0,0,0,0,0,0,0,0,0,0,0,0,0,0,0,0,0,0,0,0,0,0,0,0,0,0,0,0,0,0,2.7749,2.7748,0,2.7706,2.7706,2.7705,2.7668,2.7668,2.7667,2.7667,2.762,2.7619,2.7618,0,0,0,0,0,0,0,0,0,0,0,0,0,2.7796,2.7796,2.7749,2.7748,2.7748,2.7706,2.7706,2.7705,2.7668,2.7668,2.7667,2.7667,2.762,2.7619,2.7618,0,0,0,0,0,0,0,0,0,0,0,0,0,2.7767,2.7795,2.7749,2.7725,2.7722,2.7706,2.7706,2.7705,2.7668,2.7668,2.7667,2.7667,2.762,2.7619,2.7618,2.7622,0,0,2.7614,2.7613,0,0,0,0,0,0,0,0,2.7768,2.7765,2.7729,2.7726,2.7723,2.7692,2.7705,2.7677,2.7669,2.7689,2.7667,2.7666,2.7644,2.7641,2.7634,2.7619,2.7617,2.7614,2.7613,2.7612,2.7612,0,0,0,0,0,0,0,2.777,2.7767,2.7732,2.7728,2.7725,2.7715,2.771,2.7699,2.767,2.7687,2.7684,2.768,2.7642,2.7635,2.7633,2.7617,2.7614,2.7612,2.7612,2.7611,2.7604,2.7605,0,0,0,0,0,0,2.7777,2.7769,2.7733,2.7731,2.7745,2.7715,2.7709,2.7703,2.767,2.7665,2.768,2.7678,2.7638,2.7634,2.7631,2.7634,2.7612,2.7611,2.761,2.7603,2.7604,2.7605,0,0,0,0,0,0,2.7778,2.7774,2.7735,2.7749,2.7743,2.7714,2.7707,2.7702,2.7695,2.7665,2.766,2.7679,2.7637,2.7633,2.7625,2.7632,2.761,2.7609,2.7603,2.7604,2.7604,2.764,0,0,0,0,0,0,2.7779,2.7775,2.7776,2.7749,2.7743,2.7731,2.7708,2.7702,2.7693,2.769,2.7662,2.7657,2.7636,2.7627,2.7623,2.7629,2.7608,2.7602,2.7603,2.7604,2.7638,2.7642,2.7645,0,0,0,0,0,2.7781,2.7787,2.7777,2.7773,2.7744,2.7731,2.7727,2.7704,2.7694,2.7695,2.7676,2.7658,2.7632,2.7626,2.7622,2.7628,2.7601,2.7603,2.7604,2.7636,2.7641,2.7645,0,0,0,0,0,0,2.7814,2.7783,2.7771,2.7769,2.7753,2.7725,2.7726,2.771,2.7696,2.7694,2.7665,2.7659,2.7654,2.764,2.7635,2.763,2.7614,2.7615,2.764,2.7644,2.7648,2.7652,2.7607,0,0,0,0,0,2.7822,2.7815,2.7787,2.7787,2.778,2.7755,2.7748,2.7732,2.7714,2.7707,2.7687,2.767,2.7657,2.765,2.7637,2.7636,2.7629,2.7638,2.7641,2.7644,2.7645,2.7644,2.7648,2.7609,2.7609,2.7609,0,0,2.7836,2.7818,2.7815,2.7794,2.778,2.7772,2.7749,2.7742,2.7736,2.7705,2.7697,2.7682,2.7661,2.7657,2.7653,2.7644,2.7655,2.7646,2.7649,2.7648,2.7646,2.765,2.7653,2.761,2.761,2.761,0,0,2.7859,2.7845,2.7844,2.7831,2.781,2.7793,2.7793,2.7768,2.7757,2.7749,2.7726,2.7718,2.7697,2.7683,2.7673,2.7692,2.7675,2.7688,2.7707,2.7707,2.771,2.7712,2.772,2.7723,2.7689,2.7689,2.7689,0,2.7879,2.7868,2.7845,2.784,2.7831,2.7804,2.7803,2.7791,2.7767,2.7761,2.7752,2.7726,2.771,2.7702,2.7707,2.77,2.7699,2.7692,2.7712,2.7714,2.7716,2.7723,2.7725,2.7691,2.7691,2.7691,2.7691,0,2.7895,2.7887,2.7889,2.7868,2.7859,2.7856,2.7832,2.7826,2.7811,2.7794,2.7786,2.7766,2.7749,2.7746,2.773,2.7736,2.7731,2.7717,2.77,2.7722,2.7728,2.773,2.7694,2.7693,2.7693,2.7692,0,0,2.7937,2.7904,2.7905,2.7896,2.7872,2.7865,2.7861,2.7845,2.7841,2.7825,2.7821,2.7804,2.7792,2.778,2.7763,2.7762,2.7779,2.7748,2.7747,2.7755,2.7786,2.7797,2.78,2.7768,2.7768,2.7768,2.7788,0,2.7956,2.7948,2.7927,2.7925,2.7918,2.7893,2.7889,2.7874,2.7858,2.785,2.7832,2.7822,2.7805,2.7798,2.7797,2.7778,2.7785,2.7776,2.7763,2.7763,2.777,2.7803,2.7815,2.7834,2.779,2.779,2.779,0,2.7978,2.7966,2.7963,2.794,2.7937,2.7934,2.7918,2.791,2.7892,2.7881,2.787,2.7851,2.7844,2.7829,2.7819,2.7813,2.7807,2.7797,2.7797,2.7795,2.7778,2.7803,2.784,2.7843,2.7793,2.7793,2.7793,0,2.801,2.7992,2.7989,2.7982,2.7955,2.7954,2.7942,2.7923,2.7916,2.7902,2.7897,2.7882,2.7874,2.7862,2.784,2.7831,2.7833,2.7815,2.7824,2.7824,2.7826,2.7826,2.7863,2.782,2.782,2.782,2.782,0,2.8034,2.8034,2.8003,2.8001,2.8,2.7976,2.7976,2.7961,2.7945,2.794,2.7916,2.7911,2.7882,2.7873,2.7855,2.7851,2.7847,2.7837,2.7833,2.784,2.7841,2.7836,2.7834,2.7821,2.7821,2.7821,2.7821,0,2.807,2.805,2.8044,2.802,2.8014,2.8014,2.7993,2.799,2.7973,2.7967,2.7964,2.7938,2.7927,2.7903,2.7885,2.7873,2.7873,2.7864,2.7879,2.7877,2.7887,2.7887,2.7921,2.7925,2.788,2.7881,2.7881,0,2.8087,2.8087,2.8063,2.8058,2.8048,2.804,2.8033,2.8009,2.8002,2.7982,2.7981,2.7969,2.7957,2.794,2.7919,2.7906,2.7897,2.791,2.7894,2.7902,2.7898,2.7899,2.7899,2.7914,2.7914,2.7915,2.7915,0,2.812,2.811,2.8101,2.8089,2.8081,2.807,2.8057,2.8054,2.8027,2.8021,2.801,2.8001,2.7984,2.7971,2.7955,2.7942,2.7924,2.792,2.7922,2.7929,2.7939,2.7934,2.789,2.792,2.7919,2.7919,2.7919,2.7918,2.8147,2.8146,2.8129,2.812,2.8109,2.8098,2.8094,2.8078,2.8069,2.8054,2.804,2.803,2.8012,2.7989,2.7977,2.7969,2.796,2.7962,2.7962,2.7963,2.7967,2.794,2.7965,2.7965,2.7965,2.7965,2.7965,0,2.818,2.8168,2.816,2.8144,2.8137,2.8122,2.8107,2.8102,2.8095,2.808,2.807,2.8058,2.8046,2.8024,2.8011,2.8008,2.8,2.8006,2.8006,2.8003,2.7975,2.7976,2.8013,2.8013,2.8013,2.8013,2.8013,2.8013,2.8196,2.8193,2.8182,2.8173,2.8161,2.8153,2.8146,2.8136,2.8124,2.8112,2.8103,2.8089,2.8072,2.8057,2.8045,2.8039,2.8036,2.8044,2.8036,2.801,2.8005,2.8001,2.8001,2.8043,2.8043,2.8065,2.8065,2.8065]}]]